CAPE
465 596 655 656 603 359 55 46 350 466 527 534 614 832 918 825 787 891 953 856 909 968 1021 1039 950 1097 1446 1194 1125 1178 1284 1297 1156 1145 1121 1194 1241 1284 870 928 717 509 484
181 225 263 393 513 706 763 696 1009 787 453 235 304 541 618 654 987 1146 1232 1082 905 929 916 836 643 909 934 929 933 960 973 971 930 670 927 1121 1367 1331 961 612 317 167 207
1 29 18 23 258 565 946 1130 1034 675 611 376 39 21 281 444 829 1162 1136 1091 933 823 885 785 825 1065 1009 937 858 998 1043 1065 1067 1032 760 1103 1203 1143 1072 631 48 14 130
0 11 0 18 97 323 521 910 967 827 658 519 314 29 60 214 346 777 1161 1082 978 933 890 1110 1033 1287 1336 1259 1309 1375 1293 1163 1166 1139 950 737 642 420 285 10 0 9 130
18 33 39 36 7 94 211 357 436 558 866 837 681 504 383 198 46 595 821 1050 1071 991 991 1023 1096 1037 1189 1325 1604 1499 1446 1463 1392 1258 1113 733 507 344 180 111 211 169 278
32 8 1 1 8 16 53 96 114 197 271 436 769 1147 1209 950 1161 1014 1134 1060 925 1048 1173 1041 948 1104 1130 893 749 904 1089 1097 1162 1172 980 923 669 440 327 421 444 345 235
0 0 0 0 0 1 0 1 0 6 48 87 154 243 539 872 746 846 901 1039 1254 1220 1154 935 703 861 1168 1212 1099 955 776 730 819 916 857 740 599 548 453 557 614 560 423
0 0 0 0 0 0 0 0 0 0 0 0 0 1 12 146 184 359 546 654 719 815 776 744 765 797 752 673 680 870 1012 961 929 673 522 505 392 417 585 690 665 617 643
0 0 0 0 0 0 0 0 0 0 0 0 0 0 0 0 0 4 41 197 465 541 524 630 709 791 702 552 755 807 775 762 727 665 583 550 525 524 379 491 884 883 627
0 0 0 0 0 0 0 0 0 0 0 0 0 0 0 0 0 2 0 24 191 245 358 458 87 119 0 0 234 452 638 714 596 470 511 450 449 372 255 211 460 511 410
0 0 0 0 0 0 0 0 0 0 0 0 0 0 0 0 1 0 0 9 11 33 94 148 27 0 0 0 0 31 256 226 322 349 450 413 358 385 434 309 264 459 494
0 0 0 0 0 0 0 0 0 0 0 0 0 0 0 0 0 0 0 0 0 0 0 0 0 0 0 0 0 0 0 0 0 14 95 174 133 85 48 190 318 221 346
0 0 0 0 0 0 0 0 0 0 0 0 0 0 0 0 0 0 0 0 0 0 0 0 0 0 0 0 0 0 0 0 0 0 0 0 0 14 80 116 73 128 232
0 0 0 0 0 0 0 0 0 0 0 0 0 0 0 0 0 0 0 0 0 0 0 0 0 0 0 0 0 0 0 0 0 0 0 0 2 0 17 13 11 23 50
0 0 0 0 0 0 0 0 0 0 0 0 0 0 0 0 0 0 0 0 0 0 0 0 0 0 0 0 0 0 0 0 0 1 2 1 2 1 15 56 56 47 46
0 0 0 0 0 0 0 0 0 0 0 0 0 0 0 0 0 0 0 0 0 0 0 0 0 0 0 0 0 0 0 0 0 0 0 3 3 4 11 41 90 111 112
0 0 0 0 0 0 0 0 0 0 0 0 0 0 0 0 0 0 0 0 0 0 0 0 0 0 0 0 0 0 0 0 0 0 0 0 0 3 7 10 5 11 46
0 0 0 0 0 0 0 0 0 0 0 0 0 0 0 0 0 0 0 0 0 0 0 0 0 0 0 0 0 0 0 0 0 0 0 0 1 1 3 4 5 7 4
0 0 0 0 0 0 0 0 0 0 0 0 0 0 0 0 0 0 0 0 0 0 0 0 0 0 0 0 0 0 0 0 0 0 0 0 0 1 0 4 4 4 3
0 0 0 0 0 0 0 0 0 0 0 0 0 0 0 0 0 0 0 0 0 4 7 0 0 0 0 0 0 0 0 0 0 0 0 0 0 2 0 1 2 3 6
0 0 0 0 0 0 0 0 0 0 0 0 0 0 0 0 0 0 0 2 0 2 2 0 0 0 0 0 0 0 0 0 1 0 0 0 0 0 1 1 0 2 4
0 0 0 0 0 0 0 0 0 0 0 0 0 0 0 0 0 0 0 0 11 11 8 0 0 0 0 0 0 0 0 0 0 0 1 0 0 1 1 2 2 4 5
0 0 0 0 0 0 0 0 0 0 0 0 0 0 0 0 0 0 1 3 0 0 7 1 0 0 0 0 0 0 0 0 0 2 1 1 1 2 3 0 1 2 5
0 0 0 0 0 0 0 0 0 0 0 0 0 0 0 0 1 5 3 2 1 2 10 18 5 2 1 0 0 1 1 2 2 4 4 5 6 6 5 4 4 5 5
0 0 0 0 0 0 0 0 0 0 0 0 0 0 1 3 4 1 3 5 5 4 4 8 14 6 3 1 0 0 0 0 0 0 2 2 1 2 3 3 3 5 4
0 0 0 0 0 0 0 0 0 0 0 0 0 0 0 2 3 2 2 2 4 4 4 6 7 6 5 2 0 0 0 0 0 0 0 1 1 1 2 2 3 5 5
CIN
-63 -44 -41 -42 -55 -82 -130 -132 -89 -77 -85 -81 -63 -46 -39 -45 -48 -44 -37 -36 -35 -38 -51 -58 -63 -72 -58 -70 -84 -96 -83 -76 -63 -92 -126 -110 -93 -95 -134 -147 -184 -219 -272
-98 -79 -74 -70 -47 -36 -47 -43 -39 -54 -93 -120 -109 -83 -62 -61 -42 -28 -22 -27 -27 -30 -37 -53 -60 -63 -66 -77 -72 -69 -71 -86 -91 -125 -127 -106 -74 -69 -124 -162 -220 -290 -305
-7 -122 -130 -117 -82 -45 -29 -33 -32 -43 -52 -74 -104 -70 -80 -67 -55 -38 -32 -29 -41 -44 -37 -40 -39 -35 -37 -47 -46 -34 -40 -56 -63 -79 -114 -99 -93 -82 -83 -143 -281 -389 -327
-0 -136 -0 -168 -147 -113 -68 -51 -46 -44 -37 -43 -56 -45 -89 -79 -75 -46 -28 -29 -38 -47 -49 -41 -39 -29 -23 -23 -22 -20 -25 -25 -30 -37 -68 -101 -122 -160 -205 -160 -0 -388 -263
-144 -188 -174 -143 -36 -149 -135 -118 -107 -79 -57 -43 -35 -47 -60 -88 -99 -46 -31 -24 -25 -26 -35 -37 -39 -36 -29 -28 -20 -19 -23 -23 -19 -21 -21 -71 -87 -113 -149 -244 -217 -246 -180
-121 -156 -0 -22 -151 -186 -198 -207 -185 -134 -134 -113 -59 -29 -21 -24 -19 -22 -16 -15 -21 -18 -18 -21 -31 -29 -30 -31 -37 -38 -29 -19 -16 -25 -19 -26 -47 -72 -98 -92 -121 -157 -182
-0 -0 -0 -0 -0 -0 -0 -192 -0 -145 -199 -168 -145 -125 -82 -62 -84 -67 -45 -30 -19 -19 -18 -26 -35 -34 -28 -26 -24 -34 -43 -45 -40 -27 -19 -27 -52 -53 -79 -51 -56 -92 -128
-0 -0 -0 -0 -0 -0 -0 -0 -0 -0 -0 -0 -0 -0 -83 -124 -147 -118 -95 -86 -78 -53 -46 -41 -40 -42 -40 -37 -31 -24 -20 -25 -31 -49 -53 -59 -78 -80 -56 -55 -80 -113 -121
-0 -0 -0 -0 -0 -0 -0 -0 -0 -0 -0 -0 -0 -0 -0 -0 -0 -37 -171 -123 -80 -75 -84 -72 -53 -55 -75 -88 -46 -35 -42 -55 -63 -63 -75 -103 -112 -115 -136 -94 -45 -39 -100
-0 -0 -0 -0 -0 -0 -0 -0 -0 -0 -0 -0 -0 -0 -0 -0 -56 -205 -0 -166 -104 -95 -78 -65 -179 -142 -0 -0 -107 -61 -38 -43 -75 -92 -81 -98 -111 -136 -134 -142 -74 -51 -65
-0 -0 -0 -0 -0 -0 -0 -0 -0 -0 -0 -0 -0 -0 -0 -0 -64 -0 -0 -99 -127 -79 -90 -78 -154 -0 -0 -0 -0 -67 -69 -83 -73 -86 -87 -107 -131 -114 -104 -116 -117 -72 -58
-0 -0 -0 -0 -0 -0 -0 -0 -0 -0 -0 -0 -0 -0 -0 -0 -0 -0 -0 -0 -0 -0 -0 -0 -0 -0 -0 -0 -0 -0 -0 -0 -0 -231 -146 -156 -155 -181 -237 -168 -148 -172 -126
-0 -0 -0 -0 -0 -0 -0 -0 -0 -0 -0 -0 -0 -0 -0 -0 -0 -0 -0 -0 -0 -0 -0 -0 -0 -0 -0 -0 -0 -0 -0 -0 -0 -0 -0 -0 -0 -255 -206 -202 -215 -209 -183
-0 -0 -0 -0 -0 -0 -0 -0 -0 -0 -0 -0 -0 -0 -0 -0 -0 -0 -0 -0 -0 -0 -0 -0 -0 -0 -0 -0 -0 -0 -0 -0 -0 -0 -0 -0 -31 -15 -235 -202 -229 -236 -241
-0 -0 -0 -0 -0 -0 -0 -0 -0 -0 -0 -0 -0 -0 -0 -0 -0 -0 -0 -0 -0 -0 -0 -0 -0 -0 -0 -0 -0 -0 -0 -0 -0 -0 -0 -0 -0 -0 -237 -151 -182 -216 -223
-0 -0 -0 -0 -0 -0 -0 -0 -0 -0 -0 -0 -0 -0 -0 -0 -0 -0 -0 -0 -0 -0 -0 -0 -0 -0 -0 -0 -0 -0 -0 -0 -0 -0 -0 -0 -0 -0 -54 -96 -64 -76 -92
-0 -0 -0 -0 -0 -0 -0 -0 -0 -0 -0 -0 -0 -0 -0 -0 -0 -0 -0 -0 -0 -0 -0 -0 -0 -0 -0 -0 -0 -0 -0 -0 -0 -0 -0 -0 -0 -0 -0 -0 -3 -72 -77
-0 -0 -0 -0 -0 -0 -0 -0 -0 -0 -0 -0 -0 -0 -0 -0 -0 -0 -0 -0 -0 -0 -0 -0 -0 -0 -0 -0 -0 -0 -0 -0 -0 -0 -0 -0 -0 -0 -0 -0 -0 -0 -0
-0 -0 -0 -0 -0 -0 -0 -0 -0 -0 -0 -0 -0 -0 -0 -0 -0 -0 -0 -0 -0 -0 -0 -0 -0 -0 -0 -0 -0 -0 -0 -0 -0 -0 -0 -0 -0 -0 -0 -0 -0 -0 -0
-0 -0 -0 -0 -0 -0 -0 -0 -0 -0 -0 -0 -0 -0 -0 -0 -0 -0 -0 -0 -1 -4 -8 -0 -0 -0 -0 -0 -0 -0 -0 -0 -0 -0 -0 -0 -0 -0 -0 -0 -0 -0 -0
-0 -0 -0 -0 -0 -0 -0 -0 -0 -0 -0 -0 -0 -0 -0 -0 -0 -0 -0 -0 -0 -12 -10 -0 -0 -0 -0 -0 -0 -0 -0 -0 -0 -0 -0 -0 -0 -0 -0 -0 -0 -0 -0
-0 -0 -0 -0 -0 -0 -0 -0 -0 -0 -0 -0 -0 -0 -0 -0 -0 -0 -0 -0 -0 -1 -8 -0 -0 -0 -0 -0 -0 -0 -0 -0 -0 -0 -0 -0 -0 -0 -0 -0 -0 -0 -0
-0 -0 -0 -0 -0 -0 -0 -0 -0 -0 -0 -0 -0 -0 -0 -0 -0 -0 -0 -0 -0 -0 -0 -0 -0 -0 -0 -0 -0 -0 -0 -0 -0 -0 -0 -0 -0 -0 -0 -0 -0 -0 -0
-0 -0 -0 -0 -0 -0 -0 -0 -0 -0 -0 -0 -0 -0 -0 -0 -0 -0 -0 -1 -0 -1 -0 -0 -0 -0 -0 -0 -0 -0 -0 -0 -0 -0 -0 -0 -0 -0 -0 -0 -0 -0 -0
-0 -0 -0 -0 -0 -0 -0 -0 -0 -0 -0 -0 -0 -0 -0 -0 -0 -0 -0 -0 -0 -1 -0 -1 -0 -0 -0 -0 -0 -0 -0 -0 -0 -0 -0 -0 -0 -0 -0 -0 -0 -0 -0
-0 -0 -0 -0 -0 -0 -0 -0 -0 -0 -0 -0 -0 -0 -0 -0 -0 -0 -0 -0 -0 -0 -0 -0 -0 -0 -0 -0 -0 -0 -0 -0 -0 -0 -0 -0 -0 -0 -0 -0 -0 -0 -0
Wind_Speed
19 21 25 28 28 25 17 25 28 27 27 28 27 28 28 26 23 22 24 24 26 26 26 26 26 24 23 23 21 21 23 22 25 25 23 26 28 29 28 27 28 28 29
18 21 24 27 29 30 28 25 25 27 29 27 26 25 27 27 26 24 26 25 25 26 26 27 28 27 26 26 25 26 25 24 24 28 26 28 27 27 26 26 29 29 30
15 19 22 25 28 32 30 28 25 24 25 26 26 28 24 26 26 25 25 25 25 26 26 25 26 25 26 26 25 26 26 25 24 24 27 25 26 23 26 23 28 29 30
14 21 24 24 24 25 24 22 23 23 23 25 26 27 28 26 27 27 27 26 26 25 26 27 27 26 27 27 27 27 28 28 26 25 25 23 20 21 23 26 29 29 29
10 18 21 19 21 20 20 19 18 19 23 27 28 29 29 29 28 29 29 29 29 29 28 28 28 29 29 30 29 30 29 27 28 25 22 21 19 18 28 21 25 26 25
9 9 13 15 15 17 17 17 17 18 20 21 25 30 30 29 30 31 30 29 29 31 32 31 31 31 32 32 32 32 27 25 29 26 24 19 10 5 14 18 22 25 24
8 12 13 14 10 14 14 16 19 21 20 22 23 24 26 25 25 27 28 30 30 31 30 32 32 30 30 31 33 32 30 24 18 24 27 19 14 10 21 23 24 24 23
11 14 15 15 13 13 14 17 20 22 24 24 25 26 27 26 26 26 27 28 30 30 29 29 29 31 30 31 33 34 33 32 28 22 16 15 14 22 22 28 28 25 23
13 15 16 16 15 15 15 16 19 19 21 23 24 25 26 29 29 28 29 29 30 31 31 31 30 30 31 33 34 37 37 37 33 32 32 28 30 28 22 23 23 17 13
15 16 16 17 17 17 18 18 19 18 19 21 22 23 26 30 29 29 28 28 29 30 28 27 25 25 26 28 31 33 35 35 32 33 34 33 31 28 23 16 18 14 15
16 17 17 18 19 19 20 20 20 20 20 21 22 23 22 21 23 20 21 22 24 27 27 27 26 27 29 29 30 31 33 34 35 34 34 34 34 33 30 24 19 17 18
18 19 19 19 20 20 20 21 20 20 20 20 21 21 22 21 21 23 24 23 23 26 29 30 30 32 32 32 32 33 35 35 34 35 35 37 36 35 32 28 25 22 20
20 21 22 22 22 23 23 23 22 22 22 23 24 25 25 25 25 27 28 27 26 26 28 29 31 33 34 34 33 34 35 34 36 38 39 38 36 35 34 33 32 30 28
21 22 22 22 23 24 24 24 24 25 27 28 28 29 30 30 30 31 31 31 30 30 31 33 32 32 33 35 35 34 33 33 34 36 37 38 38 37 37 35 35 35 34
21 22 23 23 24 25 24 25 26 26 27 28 29 30 31 32 33 34 33 34 33 33 34 34 35 35 36 36 34 34 34 34 34 35 37 38 38 39 39 37 36 36 35
20 20 21 22 23 25 26 27 25 27 28 27 28 28 31 30 32 34 34 34 34 33 34 37 38 39 39 37 36 35 33 33 34 37 38 39 39 40 40 39 36 36 37
20 21 22 23 24 25 27 28 30 29 28 28 30 31 30 33 35 35 35 35 33 33 36 38 40 40 39 36 36 35 37 36 37 37 37 39 40 41 41 40 40 39 39
20 22 22 24 25 27 27 28 29 30 32 33 32 33 34 36 38 38 37 36 37 36 38 40 41 40 37 34 34 37 38 38 38 38 40 39 40 41 42 41 41 42 42
19 21 22 23 25 26 28 29 31 32 33 35 36 36 37 38 39 38 37 38 41 41 40 40 38 35 32 34 36 38 38 39 40 40 40 41 41 41 43 43 43 44 45
19 20 21 23 25 27 28 30 32 33 35 37 38 39 40 42 42 42 41 42 41 39 37 36 34 34 35 36 37 38 39 40 41 42 42 42 41 42 44 44 45 46 46
19 21 21 24 25 27 30 32 34 36 38 39 40 40 42 45 46 45 45 45 45 44 41 39 37 37 38 38 40 41 42 42 42 43 43 44 44 45 44 45 47 46 46
20 21 23 25 27 29 31 33 35 38 40 42 43 44 45 44 45 46 47 46 44 43 42 42 43 42 43 43 43 44 45 45 44 44 45 46 46 47 46 47 48 49 48
19 21 23 25 27 29 32 34 37 39 42 43 45 47 47 47 47 47 47 48 48 49 46 45 47 48 48 47 47 48 50 49 47 46 48 49 49 49 49 50 50 50 50
19 20 23 25 27 29 32 35 37 40 43 44 46 48 48 49 48 49 48 48 48 48 48 47 49 52 52 51 51 51 51 51 49 50 50 51 52 51 50 51 51 50 51
17 20 22 24 26 28 31 34 37 39 42 44 47 48 48 48 48 48 47 47 48 48 49 48 47 49 51 53 53 52 51 52 52 51 51 52 53 53 52 52 52 52 51
16 19 22 23 25 26 29 32 35 39 42 43 44 44 43 43 43 44 45 45 45 46 48 47 47 48 49 49 49 49 50 51 53 52 50 51 53 54 52 52 52 51 51
Wind_Direction
248 252 248 239 237 241 263 238 220 225 226 231 232 219 225 237 250 257 252 253 251 249 246 249 257 272 272 280 293 300 302 310 308 314 329 331 332 336 340 354 355 352 350
253 256 256 252 244 242 248 254 251 243 231 232 235 242 238 236 244 251 245 252 256 251 252 253 255 266 273 279 286 290 296 304 313 306 321 322 327 335 340 344 336 343 344
258 265 265 262 254 245 251 257 263 261 255 246 249 236 253 244 245 252 255 259 261 260 256 262 260 267 268 277 283 284 289 300 311 319 317 326 326 341 337 349 334 317 333
268 274 269 273 268 261 260 267 266 268 270 262 259 255 253 256 253 256 253 258 261 267 267 263 262 265 264 267 273 277 281 290 304 314 321 334 346 348 346 330 300 325 320
275 278 264 287 274 270 265 270 277 277 272 266 263 259 257 259 259 259 258 261 264 261 267 269 267 266 263 264 276 277 288 299 303 317 329 338 347 356 323 350 340 338 351
312 337 328 322 302 271 269 273 281 284 284 283 274 265 264 265 264 260 263 268 269 266 258 263 267 267 265 258 257 267 300 308 299 312 321 334 230 226 3 356 346 343 345
352 339 341 347 355 272 281 285 284 285 290 286 284 283 277 277 279 275 274 273 273 273 276 274 273 282 283 279 271 278 291 309 323 315 313 328 335 250 336 334 334 334 337
345 342 337 329 327 324 304 297 294 291 287 284 284 282 280 281 284 283 282 280 278 279 283 285 286 285 287 289 286 284 290 295 306 317 321 322 322 323 324 319 320 327 332
340 337 334 330 327 317 316 323 308 295 293 288 286 286 287 282 281 284 283 284 283 282 283 285 287 290 292 289 285 282 283 286 297 301 303 312 310 314 322 322 322 328 325
333 335 334 324 322 321 316 314 317 314 302 302 295 295 289 283 285 285 285 286 286 286 288 290 296 298 301 301 297 295 293 296 302 301 300 303 308 314 319 317 319 315 320
331 333 333 331 328 325 319 323 321 313 315 308 298 292 288 299 290 301 304 296 294 292 293 293 295 298 300 301 301 299 297 299 299 302 303 304 304 306 309 312 311 309 311
322 323 325 325 324 323 322 318 320 319 318 312 308 308 308 304 311 309 306 305 301 300 293 294 296 296 298 299 300 300 299 299 301 302 302 301 302 304 306 309 308 305 301
315 314 314 314 314 315 316 314 313 313 311 308 306 304 306 310 310 308 306 305 303 298 298 298 298 298 300 300 300 301 302 302 300 297 297 299 303 304 305 305 307 307 306
311 311 312 311 311 311 312 313 314 312 306 303 301 300 300 299 300 301 302 301 300 298 296 297 301 301 301 301 300 302 304 305 304 303 301 300 301 302 302 303 303 306 306
310 309 308 310 309 308 310 308 308 310 310 306 304 303 301 299 301 301 300 298 299 297 295 294 296 299 300 302 303 304 304 304 304 305 304 304 302 302 301 303 302 302 302
309 308 309 309 309 309 309 306 309 309 308 309 308 306 303 305 305 305 304 302 299 299 296 294 293 294 295 297 300 302 304 306 306 305 305 304 302 302 302 302 302 301 301
309 307 307 308 309 309 309 308 305 305 309 308 308 307 307 305 305 306 305 305 304 302 297 294 293 293 294 295 296 298 299 303 304 304 306 305 303 302 303 302 301 301 301
307 308 307 308 309 309 309 309 308 307 304 304 306 306 305 304 304 304 304 304 301 300 299 295 294 294 293 295 297 298 299 300 302 303 303 303 303 302 301 302 301 299 300
308 308 309 310 310 310 310 309 309 307 305 304 304 304 303 303 304 304 304 302 299 297 298 297 297 296 294 295 296 297 298 298 300 301 301 301 302 301 299 299 299 299 297
314 313 312 312 312 312 312 311 310 309 307 305 304 303 303 302 301 300 300 300 299 298 299 298 298 297 296 296 296 297 297 298 298 298 299 300 301 301 299 298 298 297 297
311 313 315 315 315 315 315 314 312 310 309 307 306 305 304 301 299 299 297 295 294 293 293 293 295 295 295 296 296 295 295 295 297 297 297 297 298 298 299 297 296 296 296
307 309 311 312 314 314 315 315 314 313 311 309 308 307 307 305 302 299 297 295 296 294 291 289 289 291 292 293 294 294 293 292 293 295 295 296 297 297 297 297 295 294 293
306 309 311 312 314 315 316 316 315 314 314 312 309 307 306 305 303 301 299 296 294 291 290 289 288 287 288 289 290 290 289 289 291 292 293 293 294 295 295 293 293 292 291
305 308 311 312 314 315 317 317 317 316 315 314 312 310 307 306 303 301 299 297 295 293 291 290 288 287 286 286 287 288 287 287 288 288 289 289 290 291 292 292 291 291 290
305 308 312 313 314 316 317 319 320 319 318 317 315 312 310 306 304 302 301 299 297 295 293 292 290 289 288 287 286 285 286 286 286 286 286 286 286 288 289 289 289 289 288
307 310 313 315 317 319 320 321 323 323 322 321 320 318 315 312 309 306 304 303 301 299 297 295 293 292 290 289 288 287 287 287 285 286 285 284 284 285 286 286 286 286 286